Home   Weather   Trieste   Past weeks

Flag for Italy Past Weather in Trieste, Italy — Yesterday and Last 2 Weeks

Now
61 °F

Clear.


Feels Like: 61 °F
Forecast: 54 / 75 °F
Wind: No wind

Location: Trieste

Current Time: Sep 28, 2016 at 5:37:47 AM

Latest Report: Sep 28, 2016 at 5:00 AM


Visibility: 13 mi

Pressure: 30.35 "Hg

Humidity: 58%

Dew Point: 46 °F

Location of TriesteLocation

Past Weather in Trieste — Graph

°F

Trieste Temperature Yesterday

Maximum temperature yesterday: 74 °F (at 5:00 PM)
Minimum temperature yesterday: 63 °F (at 7:00 AM)
Average temperature yesterday: 68 °F

High & Low Weather Summary for the Past Weeks

 TemperatureHumidityPressure
High86 °F (Sep 13, 2:00 PM)91% (Sep 16, 4:00 AM)30.34 "Hg (Sep 16, 4:00 AM)
Low58 °F (Sep 23, 8:00 AM)2% (Sep 20, 8:00 PM)29.76 "Hg (Sep 19, 7:00 AM)
Average70 °F63%30.02 "Hg
* Reported Sep 13 4:00 AM — Sep 28 4:00 AM, Trieste, Weather by CustomWeather, © 2016

Note: Actual official high and low records may vary slightly from our data, if they occured in-between our weather recording intervals... More about our weather records

Advertising

Trieste Weather History for the Previous 24 Hours

Scroll right to see more
 ConditionsComfort  
Time TempWeatherWind HumidityBarometerVisibility
4:00 AM
Wed, Sep 28
64 °FPassing clouds.1 mph52%30.34 "Hg12 mi
3:00 AM66 °FPassing clouds.6 mph51%30.34 "Hg12 mi
2:00 AM65 °FPassing clouds.3 mph49%30.34 "Hg12 mi
1:00 AM66 °FPassing clouds.3 mph48%30.33 "Hg12 mi
12:00 AM66 °FPassing clouds.8 mph48%30.32 "Hg12 mi
11:00 PM
Tue, Sep 27
65 °FClear.7 mph52%30.32 "Hg12 mi
10:00 PM67 °FClear.3 mph50%30.29 "Hg12 mi
9:00 PM67 °FClear.8 mph50%30.27 "Hg12 mi
8:00 PM68 °FClear.2 mph51%30.27 "Hg12 mi
7:00 PM70 °FPassing clouds.No wind67%30.24 "Hg12 mi
6:00 PM74 °FScattered clouds.1 mph54%30.23 "Hg12 mi
5:00 PM74 °FScattered clouds.3 mph58%30.22 "Hg12 mi
4:00 PM74 °FPassing clouds.No wind52%30.22 "Hg12 mi
3:00 PM73 °FPassing clouds.No wind56%30.22 "Hg12 mi
2:00 PM72 °FPassing clouds.1 mph56%30.22 "Hg12 mi
1:00 PM74 °FPassing clouds.2 mph53%30.22 "Hg12 mi
12:00 PM74 °FPassing clouds.1 mph49%30.22 "Hg12 mi
11:00 AM72 °FScattered clouds.1 mph45%30.22 "Hg12 mi
8:00 AM65 °FOvercast.1 mph56%30.18 "Hg12 mi
7:00 AM63 °FPartly sunny.1 mph56%30.17 "Hg12 mi
6:00 AM64 °FPassing clouds.7 mph57%30.15 "Hg12 mi
5:00 AM64 °FPassing clouds.2 mph57%30.15 "Hg12 mi
Weather by CustomWeather, © 2016

See weather overviewHow to use our weather pages